Regional Weather Roundup
Issued by NWS

Home | Current Version | Previous Version | Text Only | Print | Product List | Glossary Off
Versions: 1 2 3 4 5 6 7 8 9 10 11 12 13 14 15 16 17 18 19 20 21 22 23 24 25 26 27 28 29 30 31 32 33 34 35 36 37 38 39 40 41 42 43 44 45 46 47 48 49 50

000
ASUS43 KOAX 021802
RWRNE

WEATHER ROUNDUP FOR NEBRASKA
NATIONAL WEATHER SERVICE OMAHA NE
1200 PM CST MON MAR 02 2015

NOTES: SATELLITE DATA IS BEING USED TO AUGMENT CLOUD COVER ABOVE
       12000 FEET.
       "FAIR" INDICATES FEW OR NO CLOUDS BELOW 12,000 FEET WITH NO
       SIGNIFICANT WEATHER AND/OR OBSTRUCTIONS TO VISIBILITY.

  * THESE STATIONS DO NOT REPORT WEATHER SUCH AS RAIN...SNOW OR FOG.

NEZ001>004-019>022-054>056-021900-
NEBRASKA PANHANDLE

CITY           SKY/WX    TMP DP  RH WIND       PRES   REMARKS
SCOTTSBLUFF    MOSUNNY   39  23  52 S13       29.91F WCI  31
6HR MIN TEMP:  29; 6HR MAX TEMP:  40;

ALLIANCE       PTSUNNY   37  19  48 S24G31    29.92F WCI  26
6HR MIN TEMP:  23; 6HR MAX TEMP:  37;

CHADRON        MOSUNNY   42  23  46 S18       29.88F
6HR MIN TEMP:  30; 6HR MAX TEMP:  42;

KIMBALL        PTSUNNY   32  23  68 S15G22    29.88F WCI  22
SIDNEY         CLOUDY    32  21  64 S21G26    29.95F WCI  20
6HR MIN TEMP:  26; 6HR MAX TEMP:  32;

$$

NEZ057>060-069>072-079>082-021900-
SOUTHWEST NEBRASKA

CITY           SKY/WX    TMP DP  RH WIND       PRES   REMARKS
NORTH PLATTE   PTSUNNY   38   9  30 S25G35    30.11F WCI  27
6HR MIN TEMP:  23; 6HR MAX TEMP:  38;

IMPERIAL         N/A     32  19  58 S25G32    30.07F WCI  19
6HR MIN TEMP:  27; 6HR MAX TEMP:  32;

LEXINGTON      CLOUDY    36  15  41 S25G37    30.19F WCI  24
MCCOOK         CLOUDY    36  18  48 S17G29    30.16F WCI  26
6HR MIN TEMP:  28; 6HR MAX TEMP:  38;

$$

NEZ005>010-023>029-035>040-094-021900-
NORTH CENTRAL NEBRASKA

CITY           SKY/WX    TMP DP  RH WIND       PRES   REMARKS
VALENTINE      CLOUDY    36  16  44 S29G46    30.04F WCI  23
6HR MIN TEMP:  20; 6HR MAX TEMP:  36;

AINSWORTH      CLOUDY    35  16  45 S25       30.09F WCI  23
BROKEN BOW     CLOUDY    36  15  42 S30G36    30.17F WCI  23
6HR MIN TEMP:  25; 6HR MAX TEMP:  39;

ORD            CLOUDY    38  17  42 S21G32    30.20F WCI  28
6HR MIN TEMP:  22; 6HR MAX TEMP:  38;

$$

NEZ041-046>049-061>064-073>077-083>087-021900-
SOUTH CENTRAL NEBRASKA

CITY           SKY/WX    TMP DP  RH WIND       PRES   REMARKS
GRAND ISLAND   CLOUDY    38  18  44 S25G32    30.28F WCI  27
6HR MIN TEMP:  26; 6HR MAX TEMP:  39;

AURORA         PTSUNNY   38  19  44 S20G28    30.29F WCI  29
HASTINGS       CLOUDY    37  17  44 S18G28    30.26F WCI  27
6HR MIN TEMP:  28; 6HR MAX TEMP:  38; 6HR PCP: TRACE;

HEBRON         CLOUDY    38  18  44 S17       30.33F WCI  28
KEARNEY *      CLOUDY    37  18  44 S25G32    30.24F WCI  26
$$

NEZ011>018-030>034-042>045-021900-
NORTHEAST NEBRASKA

CITY           SKY/WX    TMP DP  RH WIND       PRES   REMARKS
NORFOLK        CLOUDY    34  17  50 S18       30.29F WCI  23
6HR MIN TEMP:  11; 6HR MAX TEMP:  34;

ALBION         CLOUDY    37  20  49 S18G29    30.26F WCI  27
BLAIR          CLOUDY    34  19  56 SE14      30.36F WCI  24
COLUMBUS *     CLOUDY    37  19  48 S16       30.33F WCI  28
FREMONT        CLOUDY    36  19  51 SE15      30.36F WCI  26
TEKAMAH        CLOUDY    32  19  58 SE14      30.38F WCI  22
6HR MIN TEMP:  14; 6HR MAX TEMP:  32;

$$

NEZ050>053-065>068-078-088>093-021900-
SOUTHEAST NEBRASKA

CITY           SKY/WX    TMP DP  RH WIND       PRES   REMARKS
LINCOLN        PTSUNNY   40  22  48 S16       30.36F WCI  31
6HR MIN TEMP:  20; 6HR MAX TEMP:  40;

OMAHA EPPLEY   PTSUNNY   33  19  56 SE15      30.39F WCI  23
6HR MIN TEMP:  17; 6HR MAX TEMP:  34;

BEATRICE       MOSUNNY   40  20  44 S16G24    30.35F WCI  31
FALLS CITY     MOSUNNY   39  21  48 S14       30.40F WCI  31
6HR MIN TEMP:  23; 6HR MAX TEMP:  40;

NEBRASKA CITY  PTSUNNY   38  18  43 S16       30.38F WCI  29
$$

NEZ044-045-051>053-067-021900-
OMAHA AREA

CITY           SKY/WX    TMP DP  RH WIND       PRES   REMARKS
OMAHA EPPLEY   PTSUNNY   33  19  56 SE15      30.39F WCI  23
6HR MIN TEMP:  17; 6HR MAX TEMP:  34;

BLAIR          CLOUDY    34  19  56 SE14      30.36F WCI  24
FREMONT        CLOUDY    36  19  51 SE15      30.36F WCI  26
OFFUTT AFB     PTSUNNY   35  19  52 SE14      30.39F WCI  26
WAHOO          CLOUDY    37  19  48 SE14G20   30.36F WCI  29
$$


USA.gov is the U.S. government's official web portal to all federal, state and local government web resources and services.